sat.trackr.live / text

‹ back to catalog

ONEWEB-0208

NORAD 48243 · 2021-031AK

PAYLOAD ACTIVE UNKNOWN

§ Identity

Operator
Country
UK
Launch date
2021-04-25
Launch site
VOSTO
Launch vehicle
Mass (kg)
RCS (m²)

Purposes: comms

External: N2YO · Heavens-Above · Gunter

§ Orbital elements

Epoch: 2026-05-25T04:08:14.840736Z

Period
109.55 min
Inclination
87.8944°
Eccentricity
0.0001489
Mean motion
13.14501483 rev/d
Perigee alt
1,204.7 km
Apogee alt
1,206.9 km
Semi-major
7,583.9 km
B*
4.8858e-4
RAAN
294.2950°
Arg perigee
103.6109°
Mean anomaly
256.5187°
Rev number
24,528

§ Raw data

ONEWEB-02081 48243U 21031AK  26145.17239399  .00000194  00000+0  48858-3 0  99982 48243  87.8944 294.2950 0001489 103.6109 256.5187 13.14501483245281

JSON: /api/v1/satellites/48243 · /tle

For live sub-satellite position, see the globe view (requires WebGL).

§ Visibility from observer

Set your observer location to see the next 7 days of passes ≥ 10°. The values pass through the URL so the page stays shareable.

No JS? Fill the form by hand. The geolocation button needs JavaScript.